Meteo Giornale » Osservazioni meteo Gran Bretagna » Prestwick

ore: 14:50 - Osservazioni Meteo Prestwick
Lat. 55° 30' N Lon. 4° 35' W Alt. 20 metri s.l.m.

nuvoloso Europe/London

13 °C

Nuvoloso

Temp. 24 Ore

8 °C

14 °C

Sud/Sud-Est

7.4 Km/h

Dew point 9 °C

Umidità 76 %

Visibilità  10 Km

Il sole sorge alle ore 07:14

Il sole tramonta alle ore 19:03

Data e Ora Cielo e Fenomeni T °C DP °C Um. % Pres. hPa Vis. km Vento km/h
Oggi h: 14:50 nuvoloso Nuvoloso 13 9 76 1006 10 S/SE 7.4
Oggi h: 14:20 nuvoloso Nuvoloso 13 9 76 1007 10 S 9.3
Oggi h: 13:50 poco_nuvoloso Poco Nuvoloso 14 7 62 1007 10 SO 20.3
Oggi h: 13:20 poco_nuvoloso Poco Nuvoloso 13 9 76 1007 10 S/SO 14.8
Oggi h: 12:50 coperto_pioggia Pioggia Debole 13 8 71 1007 10 SO 20.3
Oggi h: 12:20 nuvoloso Nuvoloso 13 8 71 1007 10 S/SO 18.5
Oggi h: 11:50 poco_nuvoloso Poco Nuvoloso 13 8 71 1007 10 S/SO 18.5
Oggi h: 11:20 poco_nuvoloso Poco Nuvoloso 13 7 66 1008 10 S/SO 18.5
Oggi h: 10:50 poco_nuvoloso Poco Nuvoloso 12 8 76 1008 10 S/SO 14.8
Oggi h: 10:20 poco_nuvoloso Poco Nuvoloso 12 8 76 1008 10 S/SO 14.8
Oggi h: 09:50 poco_nuvoloso Poco Nuvoloso 11 8 81 1008 10 S 16.7
Oggi h: 09:20 poco_nuvoloso Poco Nuvoloso 10 7 81 1008 10 S 9.3
Oggi h: 08:50 poco_nuvoloso Poco Nuvoloso 9 7 87 1008 10 S 11.1
Oggi h: 08:20 poco_nuvoloso Poco Nuvoloso 9 7 87 1008 10 S 18.5
Oggi h: 07:50 poco_nuvoloso Poco Nuvoloso 8 6 87 1008 10 S 14.8
Oggi h: 07:20 poco_nuvoloso Poco Nuvoloso 8 6 87 1008 10 S 9.3
Oggi h: 06:50 poco_nuvoloso Poco Nuvoloso 8 6 87 1008 10 N 5.5
Oggi h: 06:20 poco_nuvoloso Poco Nuvoloso 8 6 87 1008 10 S/SE 13
Oggi h: 05:50 sereno Sereno 9 7 87 1008 10 S 16.7
Oggi h: 04:50 sereno Sereno 9 7 87 1008 10 S/SO 18.5
Oggi h: 04:20 molto_nuvoloso Molto Nuvoloso 10 7 81 1008 10 S 20.3
Oggi h: 03:50 nuvoloso Nuvoloso 10 7 81 1008 10 S 20.3
Oggi h: 03:20 sereno Sereno 9 7 87 1008 10 S 20.3
Oggi h: 02:50 poco_nuvoloso Poco Nuvoloso 9 7 87 1008 10 S 14.8
Oggi h: 02:20 poco_nuvoloso Poco Nuvoloso 10 7 81 1008 10 S 20.3
Oggi h: 01:50 poco_nuvoloso Poco Nuvoloso 10 7 81 1008 10 S 22.2
Oggi h: 01:20 sereno Sereno 10 7 81 1008 10 S 24
Oggi h: 00:50 sereno Sereno 9 7 87 1007 10 S 22.2
Oggi h: 00:20 poco_nuvoloso Poco Nuvoloso 9 7 87 1007 10 S 16.7
Ieri h: 23:50 poco_nuvoloso Poco Nuvoloso 9 7 87 1007 10 S 16.7
Ieri h: 23:20 poco_nuvoloso Poco Nuvoloso 10 7 81 1007 10 S/SO 16.7
Ieri h: 22:50 poco_nuvoloso Poco Nuvoloso 9 7 87 1007 10 S 14.8
Ieri h: 22:20 poco_nuvoloso Poco Nuvoloso 9 7 87 1007 10 S 16.7
Ieri h: 21:50 poco_nuvoloso Poco Nuvoloso 10 7 81 1007 10 S 18.5
Ieri h: 21:20 poco_nuvoloso Poco Nuvoloso 10 7 81 1006 10 S 16.7
Ieri h: 20:50 poco_nuvoloso Poco Nuvoloso 10 7 81 1006 10 S 16.7
Ieri h: 20:20 poco_nuvoloso Poco Nuvoloso 11 7 76 1006 10 S 9.3
Ieri h: 19:50 poco_nuvoloso Poco Nuvoloso 11 8 81 1006 10 S 13
Ieri h: 19:20 coperto_pioggia Pioggia Debole 12 8 76 1005 10 S/SO 13
Ieri h: 18:50 poco_nuvoloso Poco Nuvoloso 13 8 71 1005 10 S/SO 16.7
Ieri h: 18:20 poco_nuvoloso Poco Nuvoloso 13 7 66 1005 10 O/SO 20.3
Ieri h: 17:50 poco_nuvoloso Poco Nuvoloso 14 7 62 1004 10 SO 25.9
Ieri h: 17:20 poco_nuvoloso Poco Nuvoloso 14 7 62 1004 10 SO 25.9
Ieri h: 16:50 poco_nuvoloso Poco Nuvoloso 14 7 62 1004 10 O/SO 24
Ieri h: 16:20 poco_nuvoloso Poco Nuvoloso 14 7 62 1003 10 O/SO 29.6
Ieri h: 15:50 poco_nuvoloso Poco Nuvoloso 14 7 62 1003 10 O/SO 29.6